"Pseudo-MPEC" for C1CNPC5

Created 2026 Mar 18 12:35:09 UT using Find_Orb

Click here for an explanation of pseudo-MPECs

 
 Astrometry: 
     C1CNPC5 1C2026 02 26.43230311 33 42.030+23 02 04.81   ~2QBK 22.89GVNEOCPV00
     C1CNPC5*1C2026 02 26.43417411 33 42.008+23 02 05.03   ~2QB5 22.70GVNEOCPV00
     C1CNPC5 1C2026 02 26.43790311 33 41.965+23 02 05.68   ~2QBK 23.54GVNEOCPV00
     C1CNPC5 1C2026 02 26.43976511 33 41.900+23 02 06.04   ~2QB5 22.85GVNEOCPV00
     C1CNPC5 1C2026 02 26.44348311 33 41.818+23 02 06.83   ~2QBK 22.78GVNEOCPV00
     C1CNPC5 1C2026 02 26.44534611 33 41.789+23 02 07.08   ~2QB5 21.86GVNEOCPV00
     C1CNPC5 1C2026 02 26.44907411 33 41.670+23 02 07.87   ~2QBK 22.16GVNEOCPV00
     C1CNPC5 1C2026 02 26.45093611 33 41.645+23 02 08.05   ~2QB5 21.50GVNEOCPV00

Station data:
(V00) Kitt Peak-Bok  (N31.963125 W111.600190)  US/Arizona. Measurers T.
   Beuden, V. F. Carvajal, D. Fay, J. B. Fazekas, D. C. Fuls, A. R. Gibbs, A.
   D. Grauer, H. Gröller, J. K. Hogan, R. A. Kowalski, S. M. Larson, G. J.
   Leonard, D. Rankin, R. L. Seaman, F. C. Shelly, K. W. Wierzchoś. 2.25-m
   reflector + 4x4K mosaic CCD.

Orbital elements:  C1CNPC5
   Perihelion 2028 Jul 26.915615 +/- 1346 TT = 21:58:29.1 (JD 2461979.415615)
Epoch 2026 Feb 26.0 TT = JDT 2461097.5   Ju: 0.2989   Ur: 0.8761
M 345.710461604 +/- 59              (J2000 ecliptic)             AutoNEOCP
n   0.016202840 +/- 0.0531          Peri.  156.933290 +/- 80
a  15.46708970 +/- 33.8             Node    87.939511 +/- 49
e   0.69450007 +/- 0.212            Incl.   16.494995 +/- 49
P  60.82931                H 14.26  G  0.15   U 10.8  SR
q 4.725194702 +/- 2.77    Q 26.20898470 +/- 83.6
From 8 observations 2026 Feb. 26 (26.8 min); mean residual 0".18
Residuals in arcseconds: 
260226 V00  .34-  .09+    260226 V00  .09+  .04-    260226 V00  .30-  .09+    
260226 V00  .09-  .03-    260226 V00  .07+  .07+    260226 V00  .09-  .07-    
260226 V00  .43+  .06-    260226 V00  .23+  .02-    

Ephemerides (geocentric):
Date (UTC) HH   RA             Dec           delta  r     elong  mag " sig PA
---- --------  ------------   ------------  ------ ------ -----  --- --------
2026 03 18 13  11 26 08.423   +23 54 05.13  6.1963 7.1188 156.3 22.8  24d 106
2026 03 18 14  11 26 07.467   +23 54 10.14  6.1963 7.1187 156.3 22.8  24d 106
2026 03 18 15  11 26 06.510   +23 54 15.14  6.1963 7.1185 156.2 22.8  24d 106
2026 03 18 16  11 26 05.554   +23 54 20.13  6.1963 7.1183 156.2 22.8  24d 106
2026 03 18 17  11 26 04.598   +23 54 25.11  6.1963 7.1182 156.2 22.8  24d 106
2026 03 18 18  11 26 03.642   +23 54 30.09  6.1963 7.1180 156.1 22.8  24d 106
2026 03 18 19  11 26 02.686   +23 54 35.06  6.1962 7.1178 156.1 22.8  24d 106
2026 03 18 20  11 26 01.730   +23 54 40.03  6.1962 7.1176 156.1 22.8  24d 106
2026 03 18 21  11 26 00.774   +23 54 44.99  6.1962 7.1175 156.1 22.8  24d 106
2026 03 18 22  11 25 59.819   +23 54 49.94  6.1962 7.1173 156.0 22.8  24d 106
2026 03 18 23  11 25 58.863   +23 54 54.88  6.1962 7.1171 156.0 22.8  24d 106
2026 03 19 00  11 25 57.908   +23 54 59.82  6.1962 7.1169 156.0 22.8  24d 106
2026 03 19 01  11 25 56.953   +23 55 04.75  6.1962 7.1168 155.9 22.8  24d 106
2026 03 19 02  11 25 55.998   +23 55 09.67  6.1962 7.1166 155.9 22.8  24d 106
2026 03 19 03  11 25 55.043   +23 55 14.58  6.1962 7.1164 155.9 22.8  24d 106
2026 03 19 04  11 25 54.088   +23 55 19.49  6.1961 7.1163 155.9 22.8  24d 106
2026 03 19 05  11 25 53.133   +23 55 24.39  6.1961 7.1161 155.8 22.8  24d 106
2026 03 19 06  11 25 52.178   +23 55 29.28  6.1961 7.1159 155.8 22.8  24d 106
2026 03 19 07  11 25 51.224   +23 55 34.17  6.1961 7.1157 155.8 22.8  24d 106
2026 03 19 08  11 25 50.270   +23 55 39.05  6.1961 7.1156 155.7 22.8  24d 106
2026 03 19 09  11 25 49.315   +23 55 43.92  6.1961 7.1154 155.7 22.8  24d 106
2026 03 19 10  11 25 48.361   +23 55 48.79  6.1961 7.1152 155.7 22.8  24d 106
2026 03 19 11  11 25 47.407   +23 55 53.64  6.1961 7.1150 155.7 22.8  24d 106
2026 03 19 12  11 25 46.454   +23 55 58.49  6.1961 7.1149 155.6 22.8  24d 106
2026 03 19 13  11 25 45.500   +23 56 03.34  6.1961 7.1147 155.6 22.8  24d 106
2026 03 19 14  11 25 44.546   +23 56 08.17  6.1961 7.1145 155.6 22.8  24d 106
2026 03 19 15  11 25 43.593   +23 56 13.00  6.1961 7.1143 155.5 22.8  24d 106
2026 03 19 16  11 25 42.640   +23 56 17.82  6.1961 7.1142 155.5 22.8  24d 106
2026 03 19 17  11 25 41.687   +23 56 22.64  6.1961 7.1140 155.5 22.8  24d 106
2026 03 19 18  11 25 40.734   +23 56 27.45  6.1961 7.1138 155.5 22.8  24d 106
2026 03 19 19  11 25 39.781   +23 56 32.25  6.1961 7.1137 155.4 22.8  24d 106
2026 03 19 20  11 25 38.828   +23 56 37.04  6.1961 7.1135 155.4 22.8  24d 106
2026 03 19 21  11 25 37.876   +23 56 41.83  6.1961 7.1133 155.4 22.8  24d 106
2026 03 19 22  11 25 36.923   +23 56 46.60  6.1961 7.1131 155.3 22.8  24d 106
2026 03 19 23  11 25 35.971   +23 56 51.38  6.1961 7.1130 155.3 22.8  24d 106
2026 03 20 00  11 25 35.019   +23 56 56.14  6.1961 7.1128 155.3 22.8  24d 106
2026 03 20 01  11 25 34.067   +23 57 00.90  6.1961 7.1126 155.3 22.8  24d 106
2026 03 20 02  11 25 33.115   +23 57 05.65  6.1961 7.1124 155.2 22.8  24d 106
2026 03 20 03  11 25 32.164   +23 57 10.39  6.1961 7.1123 155.2 22.8  24d 106
2026 03 20 04  11 25 31.212   +23 57 15.12  6.1961 7.1121 155.2 22.8  24d 106
2026 03 20 05  11 25 30.261   +23 57 19.85  6.1961 7.1119 155.1 22.8  24d 106
2026 03 20 06  11 25 29.310   +23 57 24.57  6.1961 7.1118 155.1 22.8  24d 106
2026 03 20 07  11 25 28.359   +23 57 29.29  6.1961 7.1116 155.1 22.8  24d 106
2026 03 20 08  11 25 27.408   +23 57 33.99  6.1961 7.1114 155.0 22.8  24d 106
2026 03 20 09  11 25 26.457   +23 57 38.69  6.1961 7.1112 155.0 22.8  24d 106
2026 03 20 10  11 25 25.507   +23 57 43.38  6.1961 7.1111 155.0 22.8  24d 106
2026 03 20 11  11 25 24.557   +23 57 48.07  6.1961 7.1109 155.0 22.8  24d 106
2026 03 20 12  11 25 23.606   +23 57 52.74  6.1961 7.1107 154.9 22.8  24d 106